• In Deutschland
  • Länderverzeichnis
  • Für 7 Tage
  • Wassertemperatur
  • Satellitenkarten
  • Wetterkarte
  • Widgets
  • user-avatar
    Anmelden

    Stündliche Wetter Santana do Mundaú

    Heute, 17 Januar, Mittwoch

    Zeit Temperatur Niederschläge Wind Luftdruck Luftfeuchtigkeit
    00:00 +23°C° 0,1 mm 2 m/S 733 mmHg 91%
    01:00 +23°C° 0,1 mm 2 m/S 733 mmHg 92%
    02:00 +23°C° 0,1 mm 2 m/S 732 mmHg 93%
    03:00 +23°C° 0,1 mm 2 m/S 732 mmHg 94%
    04:00 +22°C° 0 mm 1 m/S 732 mmHg 95%
    05:00 +23°C° 0 mm 1 m/S 732 mmHg 94%
    06:00 +23°C° 0 mm 2 m/S 732 mmHg 94%
    07:00 +23°C° 0 mm 2 m/S 732 mmHg 93%
    08:00 +25°C° 0,1 mm 3 m/S 732 mmHg 83%
    09:00 +27°C° 0,1 mm 4 m/S 733 mmHg 74%
    10:00 +29°C° 0,1 mm 5 m/S 733 mmHg 64%
    11:00 +30°C° 0,1 mm 5 m/S 733 mmHg 59%
    12:00 +32°C° 0,1 mm 5 m/S 733 mmHg 55%
    13:00 +33°C° 0,1 mm 5 m/S 733 mmHg 50%
    14:00 +33°C° 0 mm 5 m/S 732 mmHg 51%
    15:00 +33°C° 0 mm 6 m/S 732 mmHg 52%
    16:00 +32°C° 0 mm 6 m/S 731 mmHg 54%
    17:00 +30°C° 0 mm 5 m/S 731 mmHg 61%
    18:00 +28°C° 0 mm 5 m/S 731 mmHg 69%
    19:00 +26°C° 0 mm 4 m/S 731 mmHg 76%
    20:00 +26°C° 0,1 mm 4 m/S 732 mmHg 81%
    21:00 +25°C° 0,1 mm 3 m/S 732 mmHg 86%
    22:00 +24°C° 0,1 mm 3 m/S 733 mmHg 91%
    23:00 +24°C° 0,1 mm 3 m/S 732 mmHg 92%

    Morgen, 18 Januar, Donnerstag

    Zeit Temperatur Niederschläge Wind Luftdruck Luftfeuchtigkeit
    00:00 +24°C° 0,1 mm 2 m/S 732 mmHg 93%
    01:00 +24°C° 0,1 mm 2 m/S 732 mmHg 94%
    02:00 +24°C° 0,2 mm 2 m/S 732 mmHg 94%
    03:00 +24°C° 0,2 mm 2 m/S 732 mmHg 94%
    04:00 +24°C° 0,2 mm 2 m/S 731 mmHg 94%
    05:00 +24°C° 0,2 mm 2 m/S 732 mmHg 94%
    06:00 +24°C° 0,2 mm 2 m/S 732 mmHg 94%
    07:00 +24°C° 0,2 mm 2 m/S 732 mmHg 93%
    08:00 +26°C° 0,1 mm 3 m/S 732 mmHg 84%
    09:00 +27°C° 0,1 mm 3 m/S 733 mmHg 75%
    10:00 +29°C° 0,1 mm 4 m/S 733 mmHg 66%
    11:00 +30°C° 0,3 mm 4 m/S 733 mmHg 61%
    12:00 +32°C° 0,3 mm 5 m/S 733 mmHg 57%
    13:00 +33°C° 0,3 mm 5 m/S 733 mmHg 53%
    14:00 +32°C° 0,7 mm 5 m/S 732 mmHg 55%
    15:00 +32°C° 0,7 mm 5 m/S 731 mmHg 57%
    16:00 +30°C° 0,7 mm 6 m/S 731 mmHg 59%
    17:00 +29°C° 0,3 mm 5 m/S 731 mmHg 66%
    18:00 +27°C° 0,3 mm 4 m/S 731 mmHg 73%
    19:00 +26°C° 0,3 mm 3 m/S 731 mmHg 80%
    20:00 +25°C° 0,1 mm 3 m/S 732 mmHg 84%
    21:00 +25°C° 0,1 mm 3 m/S 732 mmHg 88%
    22:00 +24°C° 0,1 mm 3 m/S 733 mmHg 93%
    23:00 +24°C° 0,1 mm 2 m/S 733 mmHg 93%

    übermorgen, 19 Januar, Freitag

    Zeit Temperatur Niederschläge Wind Luftdruck Luftfeuchtigkeit
    00:00 +24°C° 0,1 mm 2 m/S 732 mmHg 94%
    01:00 +24°C° 0,1 mm 2 m/S 732 mmHg 95%
    02:00 +24°C° 0 mm 2 m/S 732 mmHg 94%
    03:00 +24°C° 0 mm 2 m/S 731 mmHg 94%
    04:00 +23°C° 0 mm 2 m/S 731 mmHg 94%
    05:00 +24°C° 0 mm 2 m/S 731 mmHg 94%
    06:00 +24°C° 0 mm 2 m/S 731 mmHg 93%
    07:00 +24°C° 0 mm 2 m/S 732 mmHg 93%
    08:00 +25°C° 0,2 mm 2 m/S 732 mmHg 86%
    09:00 +27°C° 0,2 mm 3 m/S 733 mmHg 79%
    10:00 +28°C° 0,2 mm 3 m/S 733 mmHg 72%
    11:00 +29°C° 1,6 mm 4 m/S 733 mmHg 70%
    12:00 +29°C° 1,6 mm 4 m/S 733 mmHg 68%
    13:00 +30°C° 1,6 mm 4 m/S 732 mmHg 66%
    14:00 +30°C° 2 mm 4 m/S 732 mmHg 69%
    15:00 +29°C° 2 mm 5 m/S 731 mmHg 72%
    16:00 +29°C° 2 mm 5 m/S 730 mmHg 74%
    17:00 +27°C° 0,4 mm 4 m/S 731 mmHg 79%
    18:00 +26°C° 0,4 mm 4 m/S 731 mmHg 84%
    19:00 +25°C° 0,4 mm 4 m/S 731 mmHg 89%
    20:00 +25°C° 0,1 mm 3 m/S 732 mmHg 90%
    21:00 +25°C° 0,1 mm 3 m/S 732 mmHg 91%
    22:00 +25°C° 0,1 mm 3 m/S 733 mmHg 91%
    23:00 +24°C° 0 mm 3 m/S 732 mmHg 92%

    20 Januar, Samstag

    Zeit Temperatur Niederschläge Wind Luftdruck Luftfeuchtigkeit
    00:00 +24°C° 0 mm 3 m/S 732 mmHg 93%
    01:00 +24°C° 0 mm 3 m/S 731 mmHg 94%
    02:00 +24°C° 0 mm 2 m/S 731 mmHg 94%
    03:00 +24°C° 0 mm 2 m/S 731 mmHg 95%
    04:00 +24°C° 0 mm 2 m/S 731 mmHg 95%
    05:00 +24°C° 0 mm 2 m/S 731 mmHg 94%
    06:00 +24°C° 0 mm 2 m/S 731 mmHg 94%
    07:00 +24°C° 0 mm 2 m/S 732 mmHg 93%
    08:00 +25°C° 0,1 mm 2 m/S 732 mmHg 86%
    09:00 +27°C° 0,1 mm 3 m/S 733 mmHg 79%
    10:00 +28°C° 0,1 mm 3 m/S 733 mmHg 72%
    11:00 +29°C° 0,1 mm 4 m/S 733 mmHg 66%
    12:00 +32°C° 0,1 mm 4 m/S 732 mmHg 60%
    13:00 +33°C° 0,1 mm 4 m/S 732 mmHg 55%
    14:00 +33°C° 0,1 mm 4 m/S 731 mmHg 55%
    15:00 +32°C° 0,1 mm 5 m/S 731 mmHg 56%
    16:00 +32°C° 0,1 mm 5 m/S 730 mmHg 57%
    17:00 +30°C° 0 mm 5 m/S 730 mmHg 64%
    18:00 +28°C° 0 mm 4 m/S 730 mmHg 71%
    19:00 +26°C° 0 mm 4 m/S 731 mmHg 78%
    20:00 +26°C° 0 mm 3 m/S 731 mmHg 82%
    21:00 +25°C° 0 mm 3 m/S 732 mmHg 86%
    22:00 +25°C° 0 mm 3 m/S 732 mmHg 90%
    23:00 +24°C° 0 mm 2 m/S 732 mmHg 91%

    21 Januar, Sonntag

    Zeit Temperatur Niederschläge Wind Luftdruck Luftfeuchtigkeit
    00:00 +24°C° 0 mm 2 m/S 731 mmHg 92%
    01:00 +24°C° 0 mm 2 m/S 731 mmHg 93%
    02:00 +23°C° 0 mm 2 m/S 731 mmHg 94%
    03:00 +23°C° 0 mm 2 m/S 730 mmHg 95%
    04:00 +23°C° 0 mm 2 m/S 730 mmHg 96%
    05:00 +23°C° 0 mm 2 m/S 731 mmHg 95%
    06:00 +23°C° 0 mm 2 m/S 731 mmHg 94%
    07:00 +23°C° 0 mm 2 m/S 732 mmHg 93%
    08:00 +25°C° 0 mm 2 m/S 732 mmHg 84%
    09:00 +27°C° 0 mm 3 m/S 732 mmHg 74%
    10:00 +29°C° 0 mm 3 m/S 732 mmHg 64%
    11:00 +30°C° 0 mm 3 m/S 732 mmHg 60%
    12:00 +32°C° 0 mm 4 m/S 732 mmHg 56%
    13:00 +33°C° 0 mm 4 m/S 731 mmHg 52%
    14:00 +33°C° 0 mm 4 m/S 731 mmHg 53%
    15:00 +33°C° 0 mm 4 m/S 730 mmHg 53%
    16:00 +33°C° 0 mm 4 m/S 730 mmHg 53%
    17:00 +30°C° 0 mm 4 m/S 730 mmHg 61%
    18:00 +28°C° 0 mm 4 m/S 730 mmHg 68%
    19:00 +27°C° 0 mm 4 m/S 730 mmHg 75%
    20:00 +26°C° 0 mm 3 m/S 730 mmHg 81%
    21:00 +25°C° 0 mm 3 m/S 731 mmHg 87%
    22:00 +24°C° 0 mm 3 m/S 731 mmHg 92%
    23:00 +24°C° 0 mm 3 m/S 731 mmHg 93%

    22 Januar, Montag

    Zeit Temperatur Niederschläge Wind Luftdruck Luftfeuchtigkeit
    00:00 +24°C° 0 mm 2 m/S 730 mmHg 93%
    01:00 +24°C° 0 mm 2 m/S 730 mmHg 94%
    02:00 +24°C° 0 mm 2 m/S 730 mmHg 94%
    03:00 +24°C° 0 mm 2 m/S 730 mmHg 94%
    04:00 +23°C° 0 mm 2 m/S 729 mmHg 94%
    05:00 +24°C° 0,1 mm 2 m/S 730 mmHg 94%
    06:00 +24°C° 0,1 mm 2 m/S 730 mmHg 94%
    07:00 +24°C° 0,1 mm 2 m/S 731 mmHg 93%
    08:00 +26°C° 0,1 mm 3 m/S 731 mmHg 84%
    09:00 +27°C° 0,1 mm 3 m/S 731 mmHg 75%
    10:00 +29°C° 0,1 mm 4 m/S 731 mmHg 66%
    11:00 +30°C° 0 mm 4 m/S 731 mmHg 61%
    12:00 +32°C° 0 mm 4 m/S 731 mmHg 56%
    13:00 +33°C° 0 mm 4 m/S 731 mmHg 51%
    14:00 +33°C° 0 mm 4 m/S 730 mmHg 51%
    15:00 +33°C° 0 mm 5 m/S 730 mmHg 51%
    16:00 +33°C° 0 mm 5 m/S 729 mmHg 52%
    17:00 +30°C° 0 mm 5 m/S 729 mmHg 58%
    18:00 +29°C° 0 mm 4 m/S 729 mmHg 65%
    19:00 +27°C° 0 mm 4 m/S 730 mmHg 72%
    20:00 +26°C° 0 mm 4 m/S 730 mmHg 78%
    21:00 +25°C° 0 mm 3 m/S 730 mmHg 84%
    22:00 +24°C° 0 mm 3 m/S 731 mmHg 91%
    23:00 +24°C° 0 mm 3 m/S 730 mmHg 92%
    Mehr zeigen